| time (UTC) | temp F | wind direction | speed MPH | gust MPH | rain 1hr in | rain 24hr in | rain mn in | humidity % | barometer mb |
| 20260507150855 | 56 | 5 | 11.0 | 11.0 | 0.00 | 0.03 | 0.01 | 81 | 1011.8 |
| 20260507140901 | 57 | 29 | 3.0 | 4.0 | 0.00 | 0.09 | 0.01 | 79 | 1011.9 |
| 20260507130907 | 57 | 15 | 4.0 | 6.0 | 0.00 | 0.09 | 0.01 | 83 | 1011.7 |
| 20260507120847 | 57 | 360 | 5.0 | 6.0 | 0.00 | 0.09 | 0.01 | 84 | 1011.3 |
| 20260507110901 | 56 | 12 | 4.0 | 6.0 | 0.00 | 0.09 | 0.01 | 82 | 1011.3 |
| 20260507100859 | 57 | 360 | 4.0 | 7.0 | 0.00 | 0.09 | 0.01 | 83 | 1010.5 |
| 20260507090853 | 58 | 53 | 5.0 | 5.0 | 0.01 | 0.09 | 0.01 | 89 | 1010.5 |
| 20260507080901 | 62 | 24 | 13.0 | 13.0 | 0.00 | 0.08 | 0.00 | 89 | 1010.3 |
| 20260507070842 | 67 | 323 | 2.0 | 2.0 | 0.00 | 0.08 | 0.00 | 89 | 1009.5 |
| 20260507060907 | 68 | 194 | 3.0 | 3.0 | 0.00 | 0.08 | 0.00 | 85 | 1008.3 |
| 20260507050855 | 68 | 205 | 4.0 | 4.0 | 0.00 | 0.08 | 0.00 | 85 | 1009.3 |
| 20260507040852 | 68 | 212 | 4.0 | 4.0 | 0.00 | 0.08 | 0.00 | 85 | 1009.3 |
| 20260507030855 | 68 | 192 | 4.0 | 6.0 | 0.00 | 0.08 | 0.08 | 84 | 1009.4 |
| 20260507020858 | 68 | 200 | 6.0 | 6.0 | 0.00 | 0.08 | 0.08 | 84 | 1009.8 |
| 20260507000918 | 69 | 211 | 2.0 | 5.0 | 0.00 | 0.08 | 0.08 | 81 | 1009.8 |
| 20260506230858 | 70 | 188 | 6.0 | 6.0 | 0.00 | 0.08 | 0.08 | 77 | 1009.3 |
| 20260506220902 | 71 | 233 | 4.0 | 4.0 | 0.00 | 0.08 | 0.08 | 76 | 1009.3 |
| 20260506210844 | 71 | 185 | 4.0 | 9.0 | 0.00 | 0.08 | 0.08 | 77 | 1009.3 |
| 20260506200844 | 69 | 207 | 5.0 | 5.0 | 0.00 | 0.08 | 0.08 | 83 | 1009.8 |
| 20260506190901 | 67 | 169 | 4.0 | 5.0 | 0.01 | 0.08 | 0.08 | 84 | 1009.8 |
| 20260506180907 | 66 | 174 | 7.0 | 10.0 | 0.00 | 0.07 | 0.07 | 84 | 1010.8 |
| 20260506170903 | 65 | 182 | 4.0 | 4.0 | 0.00 | 0.07 | 0.07 | 88 | 1010.5 |
| 20260506160854 | 63 | 173 | 4.0 | 5.0 | 0.01 | 0.07 | 0.07 | 89 | 1011.0 |